| time (UTC) | temp C | wind direction | speed KPH | gust KPH | rain 1hr cm | rain 24hr cm | rain mn cm | humidity % | barometer mb |
| 20260506212519 | 21 | 28 | 0.0 | 11.3 | 0.00 | 0.00 | 0.00 | 25 | 1003.2 |
| 20260506212019 | 21 | 146 | 0.0 | 11.3 | 0.00 | 0.00 | 0.00 | 25 | 1003.1 |
| 20260506211518 | 21 | 19 | 0.0 | 11.3 | 0.00 | 0.00 | 0.00 | 25 | 1003.2 |
| 20260506211020 | 21 | 9 | 1.6 | 11.3 | 0.00 | 0.00 | 0.00 | 25 | 1003.2 |
| 20260506210520 | 21 | 15 | 0.0 | 11.3 | 0.00 | 0.00 | 0.00 | 25 | 1003.3 |
| 20260506210020 | 21 | 13 | 0.0 | 11.3 | 0.00 | 0.00 | 0.00 | 25 | 1003.4 |
| 20260506205520 | 21 | 13 | 1.6 | 11.3 | 0.00 | 0.00 | 0.00 | 25 | 1003.4 |
| 20260506205020 | 21 | 254 | 0.0 | 11.3 | 0.00 | 0.00 | 0.00 | 25 | 1003.4 |
| 20260506204520 | 21 | 9 | 0.0 | 11.3 | 0.00 | 0.00 | 0.00 | 25 | 1003.4 |
| 20260506204019 | 21 | 28 | 0.0 | 11.3 | 0.00 | 0.00 | 0.00 | 25 | 1003.5 |
| 20260506203519 | 21 | 19 | 0.0 | 11.3 | 0.00 | 0.00 | 0.00 | 25 | 1003.5 |
| 20260506203019 | 21 | 7 | 1.6 | 11.3 | 0.00 | 0.00 | 0.00 | 25 | 1003.5 |
| 20260506202519 | 21 | 19 | 1.6 | 11.3 | 0.00 | 0.00 | 0.00 | 24 | 1003.5 |
| 20260506202019 | 21 | 19 | 3.2 | 11.3 | 0.00 | 0.00 | 0.00 | 24 | 1003.5 |
| 20260506201519 | 21 | 30 | 3.2 | 11.3 | 0.00 | 0.00 | 0.00 | 24 | 1003.5 |
| 20260506201019 | 21 | 5 | 1.6 | 11.3 | 0.00 | 0.00 | 0.00 | 23 | 1003.5 |
| 20260506200519 | 21 | 0 | 0.0 | 11.3 | 0.00 | 0.00 | 0.00 | 24 | 1003.6 |
| 20260506200019 | 22 | 0 | 0.0 | 11.3 | 0.00 | 0.00 | 0.00 | 24 | 1003.8 |
| 20260506195518 | 22 | 0 | 1.6 | 11.3 | 0.00 | 0.00 | 0.00 | 24 | 1003.8 |
| 20260506195018 | 21 | 19 | 1.6 | 11.3 | 0.00 | 0.00 | 0.00 | 24 | 1003.8 |
| 20260506194518 | 21 | 21 | 1.6 | 11.3 | 0.00 | 0.00 | 0.00 | 24 | 1003.9 |
| 20260506194018 | 22 | 30 | 1.6 | 11.3 | 0.00 | 0.00 | 0.00 | 25 | 1003.9 |
| 20260506193520 | 22 | 177 | 0.0 | 11.3 | 0.00 | 0.00 | 0.00 | 25 | 1004.0 |
| 20260506193020 | 22 | 177 | 1.6 | 11.3 | 0.00 | 0.00 | 0.00 | 26 | 1004.1 |
| 20260506192520 | 22 | 21 | 0.0 | 11.3 | 0.00 | 0.00 | 0.00 | 26 | 1004.2 |
| 20260506192020 | 21 | 50 | 1.6 | 11.3 | 0.00 | 0.00 | 0.00 | 24 | 1004.3 |
| 20260506191519 | 21 | 28 | 1.6 | 11.3 | 0.00 | 0.00 | 0.00 | 25 | 1004.4 |
| 20260506191019 | 21 | 333 | 0.0 | 11.3 | 0.00 | 0.00 | 0.00 | 26 | 1004.6 |
| 20260506190520 | 21 | 333 | 0.0 | 11.3 | 0.00 | 0.00 | 0.00 | 25 | 1004.7 |
| 20260506190019 | 21 | 38 | 0.0 | 11.3 | 0.00 | 0.00 | 0.00 | 26 | 1004.8 |
| 20260506185520 | 20 | 173 | 0.0 | 11.3 | 0.00 | 0.00 | 0.00 | 26 | 1004.9 |
| 20260506185020 | 20 | 177 | 0.0 | 11.3 | 0.00 | 0.00 | 0.00 | 27 | 1005.0 |
| 20260506184518 | 20 | 186 | 1.6 | 11.3 | 0.00 | 0.00 | 0.00 | 28 | 1005.1 |
| 20260506184020 | 20 | 182 | 3.2 | 11.3 | 0.00 | 0.00 | 0.00 | 28 | 1005.2 |
| 20260506183520 | 20 | 181 | 1.6 | 11.3 | 0.00 | 0.00 | 0.00 | 28 | 1005.3 |
| 20260506183019 | 19 | 180 | 1.6 | 11.3 | 0.00 | 0.00 | 0.00 | 30 | 1005.3 |
| 20260506182519 | 19 | 153 | 0.0 | 11.3 | 0.00 | 0.00 | 0.00 | 32 | 1005.4 |
| 20260506182020 | 18 | 180 | 1.6 | 11.3 | 0.00 | 0.00 | 0.00 | 29 | 1005.5 |
| 20260506181520 | 18 | 176 | 0.0 | 11.3 | 0.00 | 0.00 | 0.00 | 30 | 1005.6 |
| 20260506181018 | 18 | 173 | 1.6 | 11.3 | 0.00 | 0.00 | 0.00 | 30 | 1005.7 |
| 20260506180518 | 18 | 164 | 0.0 | 11.3 | 0.00 | 0.00 | 0.00 | 30 | 1005.8 |
| 20260506180019 | 17 | 130 | 0.0 | 11.3 | 0.00 | 0.00 | 0.00 | 31 | 1005.9 |
| 20260506175518 | 17 | 161 | 1.6 | 11.3 | 0.00 | 0.00 | 0.00 | 31 | 1006.0 |
| 20260506175019 | 17 | 189 | 0.0 | 11.3 | 0.00 | 0.00 | 0.00 | 31 | 1006.1 |
| 20260506174519 | 17 | 172 | 0.0 | 11.3 | 0.00 | 0.00 | 0.00 | 31 | 1006.3 |
| 20260506174022 | 17 | 186 | 0.0 | 11.3 | 0.00 | 0.00 | 0.00 | 31 | 1006.4 |
| 20260506173523 | 16 | 173 | 0.0 | 11.3 | 0.00 | 0.00 | 0.00 | 34 | 1006.5 |
| 20260506173023 | 16 | 171 | 0.0 | 11.3 | 0.00 | 0.00 | 0.00 | 33 | 1006.6 |
| 20260506172523 | 16 | 178 | 0.0 | 11.3 | 0.00 | 0.00 | 0.00 | 34 | 1006.7 |
| 20260506172022 | 15 | 176 | 0.0 | 11.3 | 0.00 | 0.00 | 0.00 | 36 | 1006.8 |
| 20260506171522 | 15 | 177 | 0.0 | 11.3 | 0.00 | 0.00 | 0.00 | 35 | 1006.9 |
| 20260506171024 | 15 | 176 | 1.6 | 9.7 | 0.00 | 0.00 | 0.00 | 35 | 1007.0 |
| 20260506170523 | 14 | 167 | 0.0 | 9.7 | 0.00 | 0.00 | 0.00 | 34 | 1007.1 |
| 20260506170023 | 14 | 167 | 1.6 | 9.7 | 0.00 | 0.00 | 0.00 | 36 | 1007.3 |
| 20260506165523 | 13 | 167 | 0.0 | 9.7 | 0.00 | 0.00 | 0.00 | 36 | 1007.3 |
| 20260506165023 | 13 | 167 | 0.0 | 9.7 | 0.00 | 0.00 | 0.00 | 37 | 1007.5 |
| 20260506164523 | 13 | 168 | 0.0 | 9.7 | 0.00 | 0.00 | 0.00 | 38 | 1007.6 |
| 20260506164023 | 13 | 168 | 0.0 | 9.7 | 0.00 | 0.00 | 0.00 | 38 | 1007.7 |
| 20260506163522 | 12 | 168 | 0.0 | 9.7 | 0.00 | 0.00 | 0.00 | 40 | 1007.7 |
| 20260506163022 | 12 | 166 | 0.0 | 9.7 | 0.00 | 0.00 | 0.00 | 40 | 1007.8 |
| 20260506162523 | 12 | 169 | 0.0 | 9.7 | 0.00 | 0.00 | 0.00 | 40 | 1007.9 |
| 20260506162024 | 11 | 171 | 0.0 | 9.7 | 0.00 | 0.00 | 0.00 | 41 | 1007.9 |
| 20260506161523 | 11 | 167 | 0.0 | 9.7 | 0.00 | 0.00 | 0.00 | 42 | 1008.0 |
| 20260506161023 | 11 | 167 | 0.0 | 9.7 | 0.00 | 0.00 | 0.00 | 42 | 1008.0 |
| 20260506160522 | 10 | 166 | 0.0 | 9.7 | 0.00 | 0.00 | 0.00 | 43 | 1008.2 |
| 20260506160022 | 10 | 166 | 0.0 | 9.7 | 0.00 | 0.00 | 0.00 | 45 | 1008.3 |
| 20260506155522 | 9 | 167 | 1.6 | 9.7 | 0.00 | 0.00 | 0.00 | 45 | 1008.4 |
| 20260506155023 | 9 | 167 | 0.0 | 9.7 | 0.00 | 0.00 | 0.00 | 45 | 1008.5 |
| 20260506154523 | 8 | 167 | 1.6 | 9.7 | 0.00 | 0.00 | 0.00 | 46 | 1008.6 |
| 20260506154023 | 8 | 165 | 0.0 | 9.7 | 0.00 | 0.00 | 0.00 | 45 | 1008.6 |
| 20260506153523 | 8 | 165 | 0.0 | 9.7 | 0.00 | 0.00 | 0.00 | 45 | 1008.7 |
| 20260506153022 | 8 | 165 | 0.0 | 9.7 | 0.00 | 0.00 | 0.00 | 46 | 1008.7 |
| 20260506152522 | 8 | 165 | 0.0 | 9.7 | 0.00 | 0.00 | 0.00 | 46 | 1008.7 |
| 20260506152023 | 7 | 165 | 0.0 | 9.7 | 0.00 | 0.00 | 0.00 | 48 | 1008.7 |
| 20260506151522 | 7 | 165 | 0.0 | 9.7 | 0.00 | 0.00 | 0.00 | 48 | 1008.8 |
| 20260506151023 | 7 | 165 | 0.0 | 9.7 | 0.00 | 0.00 | 0.00 | 49 | 1008.9 |
| 20260506150523 | 6 | 165 | 0.0 | 9.7 | 0.00 | 0.00 | 0.00 | 50 | 1009.0 |
| 20260506150022 | 6 | 165 | 0.0 | 9.7 | 0.00 | 0.00 | 0.00 | 51 | 1009.1 |
| 20260506145522 | 6 | 165 | 0.0 | 9.7 | 0.00 | 0.00 | 0.00 | 51 | 1009.1 |
| 20260506145022 | 5 | 165 | 0.0 | 9.7 | 0.00 | 0.00 | 0.00 | 53 | 1009.2 |
| 20260506144522 | 5 | 165 | 0.0 | 9.7 | 0.00 | 0.00 | 0.00 | 53 | 1009.2 |
| 20260506144022 | 5 | 165 | 0.0 | 9.7 | 0.00 | 0.00 | 0.00 | 54 | 1009.2 |
| 20260506143521 | 4 | 165 | 0.0 | 9.7 | 0.00 | 0.00 | 0.00 | 56 | 1009.3 |
| 20260506143023 | 4 | 165 | 0.0 | 9.7 | 0.00 | 0.00 | 0.00 | 56 | 1009.4 |
| 20260506142523 | 3 | 165 | 0.0 | 9.7 | 0.00 | 0.00 | 0.00 | 57 | 1009.5 |
| 20260506142023 | 3 | 165 | 0.0 | 9.7 | 0.00 | 0.00 | 0.00 | 57 | 1009.5 |
| 20260506141523 | 3 | 165 | 0.0 | 9.7 | 0.00 | 0.00 | 0.00 | 58 | 1009.5 |
| 20260506141022 | 3 | 165 | 0.0 | 9.7 | 0.00 | 0.00 | 0.00 | 59 | 1009.6 |
| 20260506140523 | 2 | 165 | 0.0 | 9.7 | 0.00 | 0.00 | 0.00 | 59 | 1009.7 |
| 20260506140022 | 2 | 165 | 0.0 | 9.7 | 0.00 | 0.00 | 0.00 | 60 | 1009.8 |
| 20260506135522 | 2 | 165 | 0.0 | 9.7 | 0.00 | 0.00 | 0.00 | 61 | 1009.8 |
| 20260506135023 | 2 | 165 | 0.0 | 9.7 | 0.00 | 0.00 | 0.00 | 62 | 1009.8 |
| 20260506134521 | 1 | 165 | 0.0 | 9.7 | 0.00 | 0.00 | 0.00 | 62 | 1009.7 |
| 20260506134022 | 1 | 165 | 0.0 | 9.7 | 0.00 | 0.00 | 0.00 | 62 | 1009.8 |
| 20260506133522 | 1 | 165 | 0.0 | 9.7 | 0.00 | 0.00 | 0.00 | 64 | 1009.9 |
| 20260506133023 | 1 | 165 | 0.0 | 9.7 | 0.00 | 0.00 | 0.00 | 64 | 1010.0 |
| 20260506132521 | 1 | 165 | 0.0 | 9.7 | 0.00 | 0.00 | 0.00 | 65 | 1010.0 |
| 20260506132022 | 0 | 165 | 0.0 | 9.7 | 0.00 | 0.00 | 0.00 | 66 | 1010.0 |
| 20260506131523 | 0 | 165 | 0.0 | 9.7 | 0.00 | 0.00 | 0.00 | 66 | 1010.0 |
| 20260506131021 | 0 | 165 | 0.0 | 9.7 | 0.00 | 0.00 | 0.00 | 67 | 1009.9 |
| 20260506130522 | 0 | 165 | 0.0 | 9.7 | 0.00 | 0.03 | 0.00 | 68 | 1010.1 |
| 20260506130022 | 0 | 165 | 0.0 | 9.7 | 0.00 | 0.03 | 0.00 | 68 | 1010.1 |
| 20260506125523 | 0 | 165 | 0.0 | 9.7 | 0.00 | 0.03 | 0.00 | 68 | 1010.1 |
| 20260506125021 | 0 | 165 | 0.0 | 9.7 | 0.00 | 0.03 | 0.00 | 69 | 1010.1 |
| 20260506124522 | 0 | 165 | 0.0 | 9.7 | 0.00 | 0.03 | 0.00 | 68 | 1010.1 |
| 20260506124022 | 0 | 165 | 0.0 | 9.7 | 0.00 | 0.03 | 0.00 | 67 | 1010.1 |
| 20260506123523 | 0 | 165 | 0.0 | 9.7 | 0.00 | 0.03 | 0.00 | 67 | 1010.1 |
| 20260506123022 | -1 | 165 | 0.0 | 9.7 | 0.00 | 0.03 | 0.00 | 66 | 1010.1 |
| 20260506122522 | 0 | 165 | 0.0 | 9.7 | 0.00 | 0.03 | 0.00 | 64 | 1010.1 |
| 20260506122021 | 0 | 165 | 0.0 | 9.7 | 0.00 | 0.03 | 0.00 | 64 | 1010.1 |
| 20260506121522 | 0 | 165 | 0.0 | 9.7 | 0.00 | 0.03 | 0.00 | 64 | 1010.2 |
| 20260506121022 | 0 | 165 | 0.0 | 9.7 | 0.00 | 0.03 | 0.00 | 63 | 1010.3 |
| 20260506120523 | 0 | 165 | 0.0 | 9.7 | 0.00 | 0.03 | 0.00 | 63 | 1010.3 |
| 20260506120021 | 0 | 165 | 0.0 | 9.7 | 0.00 | 0.03 | 0.00 | 63 | 1010.3 |
| 20260506115522 | 0 | 165 | 0.0 | 9.7 | 0.00 | 0.03 | 0.00 | 62 | 1010.3 |
| 20260506115022 | 0 | 165 | 0.0 | 9.7 | 0.00 | 0.03 | 0.00 | 62 | 1010.4 |
| 20260506114522 | 0 | 165 | 0.0 | 9.7 | 0.00 | 0.03 | 0.00 | 62 | 1010.5 |
| 20260506114023 | 0 | 165 | 0.0 | 9.7 | 0.00 | 0.03 | 0.00 | 62 | 1010.6 |
| 20260506113521 | 0 | 165 | 0.0 | 9.7 | 0.00 | 0.03 | 0.00 | 62 | 1010.6 |
| 20260506113022 | 0 | 165 | 0.0 | 9.7 | 0.00 | 0.03 | 0.00 | 62 | 1010.7 |
| 20260506112522 | 0 | 165 | 0.0 | 9.7 | 0.00 | 0.03 | 0.00 | 62 | 1010.7 |
| 20260506112023 | 0 | 165 | 0.0 | 9.7 | 0.00 | 0.03 | 0.00 | 61 | 1010.7 |
| 20260506111521 | 0 | 165 | 0.0 | 9.7 | 0.00 | 0.03 | 0.00 | 61 | 1010.9 |
| 20260506111022 | 0 | 165 | 0.0 | 9.7 | 0.00 | 0.03 | 0.00 | 61 | 1010.9 |
| 20260506110522 | 0 | 165 | 0.0 | 9.7 | 0.00 | 0.03 | 0.00 | 60 | 1010.9 |
| 20260506110022 | 0 | 165 | 0.0 | 9.7 | 0.00 | 0.03 | 0.00 | 60 | 1011.0 |
| 20260506105522 | 0 | 165 | 0.0 | 9.7 | 0.00 | 0.03 | 0.00 | 59 | 1011.1 |
| 20260506105023 | 0 | 165 | 0.0 | 9.7 | 0.00 | 0.03 | 0.00 | 59 | 1011.2 |
| 20260506104521 | 0 | 165 | 0.0 | 9.7 | 0.00 | 0.03 | 0.00 | 59 | 1011.3 |
| 20260506104022 | 0 | 165 | 0.0 | 9.7 | 0.00 | 0.03 | 0.00 | 59 | 1011.3 |
| 20260506103523 | 0 | 165 | 0.0 | 9.7 | 0.00 | 0.03 | 0.00 | 59 | 1011.3 |
| 20260506103021 | 0 | 165 | 0.0 | 9.7 | 0.00 | 0.03 | 0.00 | 59 | 1011.3 |
| 20260506102521 | 0 | 165 | 0.0 | 9.7 | 0.00 | 0.03 | 0.00 | 59 | 1011.4 |
| 20260506102022 | 0 | 165 | 0.0 | 9.7 | 0.00 | 0.03 | 0.00 | 59 | 1011.4 |
| 20260506101522 | 0 | 165 | 0.0 | 9.7 | 0.00 | 0.03 | 0.00 | 59 | 1011.5 |
| 20260506101022 | 0 | 165 | 0.0 | 9.7 | 0.00 | 0.03 | 0.00 | 58 | 1011.7 |
| 20260506100521 | 0 | 165 | 0.0 | 9.7 | 0.00 | 0.03 | 0.00 | 57 | 1011.8 |
| 20260506100022 | 0 | 165 | 0.0 | 9.7 | 0.00 | 0.03 | 0.00 | 57 | 1011.9 |
| 20260506095522 | 1 | 165 | 0.0 | 9.7 | 0.00 | 0.03 | 0.00 | 57 | 1011.9 |
| 20260506095021 | 1 | 165 | 0.0 | 9.7 | 0.00 | 0.03 | 0.00 | 56 | 1012.0 |
| 20260506094522 | 1 | 165 | 0.0 | 9.7 | 0.00 | 0.03 | 0.00 | 56 | 1012.1 |
| 20260506094022 | 1 | 165 | 0.0 | 9.7 | 0.00 | 0.03 | 0.00 | 56 | 1012.2 |
| 20260506093521 | 1 | 165 | 0.0 | 9.7 | 0.00 | 0.03 | 0.00 | 56 | 1012.3 |
| 20260506093022 | 1 | 165 | 0.0 | 9.7 | 0.00 | 0.03 | 0.00 | 56 | 1012.3 |
| 20260506092521 | 1 | 165 | 0.0 | 9.7 | 0.00 | 0.03 | 0.00 | 55 | 1012.4 |
| 20260506092021 | 1 | 165 | 0.0 | 9.7 | 0.00 | 0.03 | 0.00 | 56 | 1012.5 |
| 20260506091522 | 1 | 165 | 0.0 | 9.7 | 0.00 | 0.03 | 0.00 | 55 | 1012.5 |
| 20260506090832 | 1 | 165 | 0.0 | 9.7 | 0.00 | 0.03 | 0.00 | 55 | 1012.6 |
| 20260506090333 | 1 | 180 | 0.0 | 9.7 | 0.00 | 0.03 | 0.00 | 54 | 1012.6 |
| 20260506085832 | 1 | 182 | 0.0 | 9.7 | 0.00 | 0.03 | 0.00 | 55 | 1012.6 |
| 20260506085332 | 1 | 182 | 0.0 | 9.7 | 0.00 | 0.03 | 0.00 | 54 | 1012.8 |
| 20260506084831 | 1 | 183 | 0.0 | 9.7 | 0.00 | 0.03 | 0.00 | 55 | 1012.7 |
| 20260506084333 | 1 | 183 | 0.0 | 9.7 | 0.00 | 0.03 | 0.00 | 55 | 1012.7 |
| 20260506083832 | 1 | 182 | 0.0 | 9.7 | 0.00 | 0.03 | 0.00 | 54 | 1012.8 |
| 20260506083333 | 1 | 183 | 0.0 | 9.7 | 0.00 | 0.03 | 0.00 | 55 | 1012.7 |
| 20260506082833 | 1 | 183 | 0.0 | 9.7 | 0.00 | 0.03 | 0.00 | 54 | 1012.9 |
| 20260506082332 | 1 | 183 | 0.0 | 9.7 | 0.00 | 0.03 | 0.00 | 54 | 1013.0 |
| 20260506081832 | 1 | 183 | 0.0 | 9.7 | 0.00 | 0.03 | 0.00 | 54 | 1013.0 |
| 20260506081333 | 1 | 183 | 0.0 | 9.7 | 0.00 | 0.03 | 0.00 | 53 | 1013.1 |
| 20260506080833 | 1 | 183 | 0.0 | 9.7 | 0.00 | 0.03 | 0.00 | 53 | 1013.2 |
| 20260506080332 | 1 | 183 | 0.0 | 9.7 | 0.00 | 0.03 | 0.00 | 53 | 1013.1 |
| 20260506073332 | 2 | 183 | 0.0 | 9.7 | 0.00 | 0.03 | 0.00 | 52 | 1013.5 |
| 20260506072832 | 2 | 187 | 1.6 | 9.7 | 0.00 | 0.03 | 0.00 | 52 | 1013.7 |
| 20260506072333 | 2 | 165 | 0.0 | 9.7 | 0.00 | 0.03 | 0.00 | 52 | 1013.7 |
| 20260506071833 | 2 | 170 | 0.0 | 9.7 | 0.00 | 0.03 | 0.00 | 52 | 1013.7 |
| 20260506071331 | 2 | 169 | 0.0 | 9.7 | 0.00 | 0.03 | 0.00 | 51 | 1013.8 |
| 20260506070831 | 2 | 168 | 0.0 | 9.7 | 0.00 | 0.03 | 0.00 | 52 | 1013.7 |
| 20260506070332 | 2 | 168 | 0.0 | 9.7 | 0.00 | 0.03 | 0.00 | 52 | 1013.9 |
| 20260506062333 | 2 | 155 | 0.0 | 1.6 | 0.00 | 0.03 | 0.00 | 50 | 1014.5 |
| 20260506061833 | 3 | 155 | 0.0 | 1.6 | 0.00 | 0.03 | 0.00 | 50 | 1014.4 |
| 20260506061331 | 3 | 155 | 0.0 | 1.6 | 0.00 | 0.03 | 0.00 | 48 | 1014.6 |
| 20260506060832 | 3 | 155 | 0.0 | 1.6 | 0.00 | 0.03 | 0.00 | 49 | 1014.5 |
| 20260506060332 | 3 | 155 | 0.0 | 1.6 | 0.00 | 0.03 | 0.00 | 48 | 1014.6 |
| 20260506051332 | 4 | 140 | 0.0 | 12.9 | 0.00 | 0.03 | 0.03 | 44 | 1015.0 |
| 20260506050832 | 5 | 153 | 0.0 | 12.9 | 0.00 | 0.03 | 0.03 | 44 | 1014.9 |
| 20260506050333 | 5 | 153 | 0.0 | 12.9 | 0.00 | 0.03 | 0.03 | 44 | 1015.0 |
| 20260506044832 | 5 | 171 | 0.0 | 12.9 | 0.00 | 0.03 | 0.03 | 44 | 1015.0 |
| 20260506044332 | 5 | 171 | 0.0 | 12.9 | 0.00 | 0.03 | 0.03 | 44 | 1015.0 |
| 20260506043832 | 5 | 173 | 0.0 | 12.9 | 0.00 | 0.03 | 0.03 | 43 | 1014.9 |
| 20260506043332 | 5 | 173 | 0.0 | 12.9 | 0.00 | 0.03 | 0.03 | 44 | 1015.0 |
| 20260506042833 | 5 | 175 | 0.0 | 12.9 | 0.00 | 0.03 | 0.03 | 43 | 1015.0 |
| 20260506042331 | 5 | 173 | 0.0 | 12.9 | 0.00 | 0.03 | 0.03 | 43 | 1014.9 |
| 20260506041832 | 5 | 173 | 0.0 | 12.9 | 0.00 | 0.03 | 0.03 | 42 | 1015.1 |
| 20260506041332 | 6 | 175 | 0.0 | 12.9 | 0.00 | 0.03 | 0.03 | 42 | 1014.9 |
| 20260506040831 | 6 | 175 | 0.0 | 12.9 | 0.00 | 0.03 | 0.03 | 42 | 1015.1 |
| 20260506040331 | 6 | 175 | 0.0 | 12.9 | 0.00 | 0.03 | 0.03 | 41 | 1015.1 |
| 20260506035831 | 6 | 175 | 0.0 | 12.9 | 0.00 | 0.03 | 0.03 | 41 | 1015.1 |
| 20260506035332 | 6 | 175 | 0.0 | 12.9 | 0.00 | 0.03 | 0.03 | 40 | 1015.3 |
| 20260506034833 | 6 | 179 | 0.0 | 12.9 | 0.00 | 0.03 | 0.03 | 40 | 1015.3 |
| 20260506034331 | 6 | 179 | 0.0 | 12.9 | 0.00 | 0.03 | 0.03 | 40 | 1015.2 |
| 20260506033831 | 6 | 179 | 0.0 | 12.9 | 0.00 | 0.03 | 0.03 | 40 | 1015.1 |
| 20260506033332 | 6 | 179 | 0.0 | 12.9 | 0.00 | 0.03 | 0.03 | 38 | 1015.2 |
| 20260506032832 | 7 | 179 | 0.0 | 12.9 | 0.00 | 0.03 | 0.03 | 38 | 1015.1 |
| 20260506032332 | 7 | 179 | 0.0 | 12.9 | 0.00 | 0.03 | 0.03 | 37 | 1015.0 |
| 20260506031831 | 7 | 188 | 1.6 | 12.9 | 0.00 | 0.03 | 0.03 | 37 | 1015.0 |
| 20260506031331 | 7 | 188 | 1.6 | 12.9 | 0.00 | 0.03 | 0.03 | 36 | 1015.0 |
| 20260506030831 | 7 | 246 | 0.0 | 12.9 | 0.00 | 0.03 | 0.03 | 36 | 1015.0 |
| 20260506030331 | 7 | 281 | 0.0 | 12.9 | 0.00 | 0.03 | 0.03 | 35 | 1015.0 |
| 20260506025832 | 7 | 0 | 0.0 | 12.9 | 0.00 | 0.03 | 0.03 | 34 | 1014.9 |
| 20260506025332 | 7 | 338 | 0.0 | 12.9 | 0.00 | 0.03 | 0.03 | 34 | 1014.9 |
| 20260506024832 | 7 | 177 | 0.0 | 12.9 | 0.00 | 0.03 | 0.03 | 34 | 1014.9 |
| 20260506024332 | 7 | 181 | 0.0 | 12.9 | 0.00 | 0.03 | 0.03 | 34 | 1015.0 |
| 20260506023832 | 8 | 180 | 0.0 | 12.9 | 0.00 | 0.03 | 0.03 | 34 | 1014.9 |
| 20260506023332 | 8 | 163 | 0.0 | 12.9 | 0.00 | 0.03 | 0.03 | 33 | 1014.9 |
| 20260506022832 | 8 | 192 | 0.0 | 12.9 | 0.00 | 0.03 | 0.03 | 33 | 1014.9 |
| 20260506022332 | 8 | 190 | 1.6 | 12.9 | 0.00 | 0.03 | 0.03 | 32 | 1014.8 |
| 20260506021832 | 8 | 0 | 0.0 | 12.9 | 0.00 | 0.03 | 0.03 | 33 | 1014.8 |
| 20260506021332 | 8 | 24 | 0.0 | 12.9 | 0.00 | 0.03 | 0.03 | 31 | 1014.9 |
| 20260506020831 | 8 | 355 | 0.0 | 12.9 | 0.00 | 0.03 | 0.03 | 31 | 1014.9 |
| 20260506020331 | 8 | 28 | 0.0 | 12.9 | 0.00 | 0.03 | 0.03 | 31 | 1014.9 |
| 20260506015831 | 8 | 28 | 1.6 | 12.9 | 0.00 | 0.03 | 0.03 | 30 | 1014.9 |
| 20260506015331 | 8 | 343 | 0.0 | 12.9 | 0.00 | 0.03 | 0.03 | 31 | 1014.9 |
| 20260506014831 | 8 | 353 | 1.6 | 12.9 | 0.00 | 0.03 | 0.03 | 31 | 1014.8 |
| 20260506014331 | 9 | 24 | 0.0 | 12.9 | 0.00 | 0.03 | 0.03 | 31 | 1014.8 |
| 20260506013831 | 9 | 23 | 0.0 | 12.9 | 0.00 | 0.03 | 0.03 | 30 | 1014.9 |
| 20260506013331 | 9 | 23 | 0.0 | 12.9 | 0.00 | 0.03 | 0.03 | 30 | 1014.9 |
| 20260506012831 | 9 | 26 | 1.6 | 12.9 | 0.00 | 0.03 | 0.03 | 30 | 1015.0 |
| 20260506012330 | 9 | 26 | 1.6 | 12.9 | 0.00 | 0.03 | 0.03 | 30 | 1015.0 |
| 20260506011830 | 9 | 31 | 0.0 | 12.9 | 0.00 | 0.03 | 0.03 | 30 | 1014.9 |
| 20260506011330 | 9 | 27 | 0.0 | 12.9 | 0.00 | 0.03 | 0.03 | 30 | 1014.9 |
| 20260506010832 | 9 | 16 | 4.8 | 12.9 | 0.00 | 0.03 | 0.03 | 30 | 1014.8 |
| 20260506010332 | 10 | 13 | 1.6 | 12.9 | 0.00 | 0.03 | 0.03 | 30 | 1014.9 |
| 20260506005832 | 10 | 15 | 0.0 | 12.9 | 0.00 | 0.03 | 0.03 | 29 | 1015.0 |
| 20260506005332 | 10 | 339 | 3.2 | 12.9 | 0.00 | 0.03 | 0.03 | 29 | 1015.0 |
| 20260506004832 | 10 | 12 | 1.6 | 12.9 | 0.00 | 0.03 | 0.03 | 29 | 1015.0 |
| 20260506004331 | 10 | 10 | 1.6 | 12.9 | 0.00 | 0.03 | 0.03 | 30 | 1015.0 |
| 20260506003831 | 10 | 21 | 3.2 | 12.9 | 0.00 | 0.03 | 0.03 | 30 | 1014.9 |
| 20260506003331 | 10 | 5 | 0.0 | 12.9 | 0.00 | 0.03 | 0.03 | 31 | 1014.9 |
| 20260506002830 | 10 | 5 | 0.0 | 12.9 | 0.00 | 0.03 | 0.03 | 31 | 1014.9 |
| 20260506002332 | 10 | 31 | 0.0 | 12.9 | 0.00 | 0.03 | 0.03 | 31 | 1014.9 |
| 20260506001832 | 10 | 20 | 3.2 | 12.9 | 0.00 | 0.03 | 0.03 | 31 | 1015.0 |
| 20260506001332 | 10 | 176 | 0.0 | 12.9 | 0.00 | 0.03 | 0.03 | 32 | 1015.1 |
| 20260506000832 | 10 | 180 | 0.0 | 12.9 | 0.00 | 0.03 | 0.03 | 31 | 1015.1 |
| 20260506000331 | 10 | 172 | 0.0 | 12.9 | 0.00 | 0.03 | 0.03 | 31 | 1015.2 |
| 20260505235831 | 10 | 202 | 0.0 | 12.9 | 0.00 | 0.03 | 0.03 | 31 | 1015.1 |
| 20260505235331 | 10 | 174 | 3.2 | 12.9 | 0.00 | 0.03 | 0.03 | 31 | 1015.1 |
| 20260505234832 | 10 | 339 | 0.0 | 12.9 | 0.00 | 0.03 | 0.03 | 31 | 1015.1 |
| 20260505234331 | 10 | 30 | 0.0 | 12.9 | 0.00 | 0.03 | 0.03 | 30 | 1015.2 |
| 20260505233831 | 10 | 334 | 3.2 | 12.9 | 0.00 | 0.03 | 0.03 | 31 | 1015.2 |
| 20260505233331 | 10 | 8 | 0.0 | 12.9 | 0.00 | 0.03 | 0.03 | 31 | 1015.2 |
| 20260505232831 | 10 | 27 | 1.6 | 12.9 | 0.00 | 0.03 | 0.03 | 30 | 1015.3 |
| 20260505232331 | 10 | 15 | 3.2 | 12.9 | 0.00 | 0.03 | 0.03 | 30 | 1015.2 |
| 20260505231830 | 10 | 99 | 0.0 | 12.9 | 0.00 | 0.03 | 0.03 | 31 | 1015.3 |
| 20260505231330 | 10 | 173 | 3.2 | 12.9 | 0.00 | 0.03 | 0.03 | 32 | 1015.4 |
| 20260505230830 | 10 | 18 | 0.0 | 12.9 | 0.00 | 0.03 | 0.03 | 31 | 1015.5 |
| 20260505230330 | 10 | 22 | 1.6 | 12.9 | 0.00 | 0.03 | 0.03 | 31 | 1015.6 |
| 20260505225830 | 10 | 44 | 1.6 | 12.9 | 0.00 | 0.03 | 0.03 | 32 | 1015.6 |
| 20260505225330 | 10 | 211 | 1.6 | 12.9 | 0.00 | 0.03 | 0.03 | 31 | 1015.7 |
| 20260505224830 | 10 | 9 | 0.0 | 12.9 | 0.00 | 0.03 | 0.03 | 32 | 1015.7 |
| 20260505224330 | 10 | 31 | 0.0 | 12.9 | 0.00 | 0.03 | 0.03 | 31 | 1015.8 |
| 20260505223830 | 10 | 28 | 3.2 | 12.9 | 0.00 | 0.03 | 0.03 | 31 | 1015.9 |
| 20260505223332 | 10 | 6 | 1.6 | 12.9 | 0.00 | 0.03 | 0.03 | 31 | 1015.9 |
| 20260505222831 | 10 | 31 | 1.6 | 12.9 | 0.00 | 0.03 | 0.03 | 31 | 1015.9 |
| 20260505222331 | 10 | 335 | 0.0 | 12.9 | 0.00 | 0.03 | 0.03 | 31 | 1016.0 |
| 20260505221831 | 10 | 40 | 3.2 | 12.9 | 0.00 | 0.03 | 0.03 | 31 | 1016.0 |
| 20260505221331 | 10 | 13 | 3.2 | 12.9 | 0.00 | 0.03 | 0.03 | 33 | 1016.0 |
| 20260505220831 | 10 | 13 | 3.2 | 12.9 | 0.00 | 0.03 | 0.03 | 33 | 1016.1 |
| 20260505220331 | 10 | 1 | 4.8 | 12.9 | 0.00 | 0.03 | 0.03 | 32 | 1016.2 |
| 20260505215831 | 10 | 19 | 3.2 | 12.9 | 0.00 | 0.03 | 0.03 | 32 | 1016.2 |
| 20260505215331 | 10 | 30 | 1.6 | 12.9 | 0.00 | 0.03 | 0.03 | 33 | 1016.2 |
| 20260505214830 | 10 | 331 | 1.6 | 12.9 | 0.00 | 0.03 | 0.03 | 33 | 1016.3 |
| 20260505214331 | 10 | 12 | 0.0 | 12.9 | 0.00 | 0.03 | 0.03 | 34 | 1016.4 |
| 20260505213831 | 10 | 4 | 4.8 | 12.9 | 0.00 | 0.03 | 0.03 | 33 | 1016.4 |
| 20260505213331 | 10 | 107 | 0.0 | 12.9 | 0.00 | 0.03 | 0.03 | 34 | 1016.4 |